Regional Weather Roundup
Issued by NWS

Home | Current Version | Previous Version | Text Only | Print | Product List | Glossary Off
Versions: 1 2 3 4 5 6 7 8 9 10 11 12 13 14 15 16 17 18 19 20 21 22 23 24 25 26

000
ASUS45 KBOI 280310
RWRID

IDAHO REGIONAL WEATHER ROUNDUP
NATIONAL WEATHER SERVICE BOISE ID
900 PM MDT THU JUL 27 2017

NOTE: "FAIR" INDICATES FEW OR NO CLOUDS BELOW 12000 FEET
WITH NO SIGNIFICANT WEATHER AND/OR OBSTRUCTIONS TO VISIBILITY

IDZ012-014-280400-
SOUTHWEST IDAHO


CITY           SKY/WX    TMP DP  RH WIND       PRES   REMARKS
BOISE          CLEAR     87  44  22 N6        29.97S
CALDWELL       CLEAR     88  53  30 CALM      29.94F
MOUNTAIN HOME  CLEAR     89  46  22 N9        29.97S
$$

IDZ016-017-280400-
SOUTHCENTRAL IDAHO


CITY           SKY/WX    TMP DP  RH WIND       PRES   REMARKS
BURLEY         CLEAR     76  50  40 CALM      30.07R
JEROME         CLEAR     77  55  46 CALM      30.07S
TWIN FALLS     CLEAR     73  56  54 CALM      30.07F
$$

IDZ019>023-280400-
SOUTHEAST IDAHO


CITY           SKY/WX    TMP DP  RH WIND       PRES   REMARKS
IDAHO FALLS    CLEAR     61  58  90 NW5       30.15F
POCATELLO      CLEAR     70  55  59 E8        30.13S
REXBURG        CLEAR     63  55  75 N6        30.16S
$$

IDZ006-010-011-018-031-032-280400-
CENTRAL IDAHO MOUNTAINS


CITY           SKY/WX    TMP DP  RH WIND       PRES   REMARKS
MCCALL         CLEAR     76  45  33 N6        30.11S
HAILEY         PTCLDY    66  54  63 W5        30.18S
STANLEY          N/A     63  47  55 CALM      30.25S
SALMON         NOT AVBL
CHALLIS        PTCLDY    65  52  62 NW3       30.17F
$$

IDZ002-004-006-007-026-280400-
NORTHERN IDAHO


CITY           SKY/WX    TMP DP  RH WIND       PRES   REMARKS
LEWISTON       CLEAR     88  39  17 NW10      29.91R
LOWELL           N/A     77  57  50 N3        29.89R
COEUR D`ALENE  CLEAR     77  50  38 SW5       29.95S
MULLAN PASS    CLEAR     67  39  35 SW5       30.19S
$$




USA.gov is the U.S. government's official web portal to all federal, state and local government web resources and services.